When you browse on this site, cookies collect data to enhance your experience and personalize the content and advertising you see.
Visit our Privacy Policy to learn more. By continuing to use the site, you agree to this use of cookies and data.
  • In Italy
  • List of Countries
  • For 7 days
  • Water Temperature
  • Satellite Maps
  • Weather Map
  • Weather Widgets
  • user-avatar
    Login

    Hourly Weather Haradok

    Today, 23 February, Saturday

    Time Temperature Precipitation Wind Pressure Humidity
    00:00 -11°C° 0 mm 4 mps 764 mmHg 82%
    01:00 -10°C° 0 mm 3 mps 764 mmHg 83%
    02:00 -12°C° 0 mm 3 mps 765 mmHg 87%
    03:00 -12°C° 0 mm 3 mps 765 mmHg 87%
    04:00 -10°C° 0 mm 2 mps 765 mmHg 87%
    05:00 -12°C° 0 mm 2 mps 765 mmHg 87%
    06:00 -10°C° 0 mm 2 mps 765 mmHg 86%
    07:00 -10°C° 0 mm 2 mps 765 mmHg 84%
    08:00 -10°C° 0 mm 2 mps 766 mmHg 81%
    09:00 -9°C° 0 mm 3 mps 765 mmHg 77%
    10:00 -8°C° 0 mm 3 mps 765 mmHg 72%
    11:00 -8°C° 0 mm 4 mps 765 mmHg 68%
    12:00 -7°C° 0 mm 4 mps 764 mmHg 69%
    13:00 -7°C° 0 mm 5 mps 763 mmHg 70%
    14:00 -7°C° 0 mm 5 mps 763 mmHg 70%
    15:00 -7°C° 0.3 mm 5 mps 762 mmHg 74%
    16:00 -7°C° 0.3 mm 5 mps 761 mmHg 78%
    17:00 -7°C° 0.3 mm 5 mps 761 mmHg 82%
    18:00 -7°C° 0.4 mm 5 mps 760 mmHg 83%
    19:00 -7°C° 0.4 mm 5 mps 760 mmHg 84%
    20:00 -7°C° 0.4 mm 5 mps 759 mmHg 86%
    21:00 -6°C° 0.1 mm 5 mps 759 mmHg 87%
    22:00 -5°C° 0.1 mm 5 mps 759 mmHg 88%
    23:00 -5°C° 0.1 mm 5 mps 758 mmHg 89%

    Tomorrow, 24 February, Sunday

    Time Temperature Precipitation Wind Pressure Humidity
    00:00 -3°C° 0.1 mm 4 mps 758 mmHg 90%
    01:00 -3°C° 0.1 mm 4 mps 758 mmHg 91%
    02:00 -2°C° 0.1 mm 4 mps 758 mmHg 92%
    03:00 -2°C° 0 mm 4 mps 758 mmHg 92%
    04:00 -2°C° 0 mm 4 mps 757 mmHg 93%
    05:00 -2°C° 0 mm 4 mps 757 mmHg 94%
    06:00 -2°C° 0 mm 4 mps 757 mmHg 94%
    07:00 -1°C° 0 mm 3 mps 758 mmHg 94%
    08:00 -1°C° 0 mm 3 mps 758 mmHg 95%
    09:00 -1°C° 0 mm 3 mps 758 mmHg 96%
    10:00 0°C° 0 mm 3 mps 758 mmHg 97%
    11:00 0°C° 0 mm 3 mps 758 mmHg 98%
    12:00 0°C° 0 mm 3 mps 757 mmHg 98%
    13:00 0°C° 0 mm 3 mps 757 mmHg 98%
    14:00 0°C° 0 mm 3 mps 757 mmHg 98%
    15:00 0°C° 0 mm 3 mps 757 mmHg 98%
    16:00 0°C° 0 mm 3 mps 756 mmHg 97%
    17:00 0°C° 0 mm 3 mps 756 mmHg 97%
    18:00 0°C° 0 mm 3 mps 755 mmHg 96%
    19:00 -1°C° 0 mm 4 mps 755 mmHg 95%
    20:00 -1°C° 0 mm 4 mps 755 mmHg 94%
    21:00 -1°C° 0 mm 4 mps 754 mmHg 94%
    22:00 -1°C° 0 mm 4 mps 754 mmHg 94%
    23:00 -1°C° 0 mm 4 mps 754 mmHg 93%

    Day after tomorrow, 25 February, Monday

    Time Temperature Precipitation Wind Pressure Humidity
    00:00 -1°C° 0 mm 4 mps 753 mmHg 94%
    01:00 -1°C° 0 mm 4 mps 753 mmHg 94%
    02:00 -1°C° 0 mm 4 mps 753 mmHg 95%
    03:00 -1°C° 0 mm 4 mps 753 mmHg 94%
    04:00 -1°C° 0 mm 4 mps 753 mmHg 94%
    05:00 -1°C° 0 mm 4 mps 752 mmHg 93%
    06:00 -2°C° 0 mm 4 mps 752 mmHg 92%
    07:00 -2°C° 0 mm 4 mps 752 mmHg 92%
    08:00 -4°C° 0 mm 5 mps 752 mmHg 91%
    09:00 -2°C° 0 mm 5 mps 751 mmHg 87%
    10:00 -2°C° 0 mm 6 mps 751 mmHg 84%
    11:00 -1°C° 0 mm 6 mps 751 mmHg 80%
    12:00 -1°C° 0 mm 6 mps 750 mmHg 81%
    13:00 +1°C° 0 mm 5 mps 750 mmHg 81%
    14:00 +1°C° 0 mm 5 mps 749 mmHg 81%
    15:00 +1°C° 0 mm 5 mps 749 mmHg 82%
    16:00 0°C° 0 mm 5 mps 749 mmHg 82%
    17:00 0°C° 0 mm 5 mps 749 mmHg 82%
    18:00 0°C° 0 mm 5 mps 749 mmHg 83%
    19:00 0°C° 0 mm 5 mps 749 mmHg 83%
    20:00 -1°C° 0 mm 6 mps 749 mmHg 84%
    21:00 -1°C° 0 mm 5 mps 749 mmHg 85%
    22:00 -1°C° 0 mm 5 mps 749 mmHg 87%
    23:00 -1°C° 0 mm 5 mps 749 mmHg 88%

    26 February, Tuesday

    Time Temperature Precipitation Wind Pressure Humidity
    00:00 -2°C° 0 mm 5 mps 749 mmHg 89%
    01:00 -2°C° 0 mm 5 mps 748 mmHg 89%
    02:00 -2°C° 0 mm 5 mps 748 mmHg 89%
    03:00 -2°C° 0 mm 5 mps 748 mmHg 89%
    04:00 -2°C° 0 mm 5 mps 747 mmHg 89%
    05:00 -2°C° 0 mm 5 mps 746 mmHg 89%
    06:00 -2°C° 0.1 mm 5 mps 746 mmHg 88%
    07:00 -2°C° 0.1 mm 5 mps 746 mmHg 88%
    08:00 -1°C° 0.1 mm 5 mps 745 mmHg 88%
    09:00 -1°C° 0.1 mm 5 mps 745 mmHg 88%
    10:00 -1°C° 0.1 mm 5 mps 745 mmHg 88%
    11:00 0°C° 0.1 mm 5 mps 745 mmHg 88%
    12:00 0°C° 0.1 mm 5 mps 745 mmHg 88%
    13:00 0°C° 0.1 mm 5 mps 745 mmHg 87%
    14:00 0°C° 0.1 mm 5 mps 745 mmHg 87%
    15:00 0°C° 0.1 mm 5 mps 745 mmHg 88%
    16:00 0°C° 0.1 mm 4 mps 746 mmHg 89%
    17:00 0°C° 0.1 mm 4 mps 746 mmHg 90%
    18:00 0°C° 0.1 mm 4 mps 747 mmHg 90%
    19:00 -1°C° 0.1 mm 4 mps 747 mmHg 90%
    20:00 -1°C° 0.1 mm 4 mps 748 mmHg 89%
    21:00 0°C° 0 mm 3 mps 748 mmHg 88%
    22:00 -1°C° 0 mm 3 mps 748 mmHg 87%
    23:00 -1°C° 0 mm 3 mps 749 mmHg 86%

    27 February, Wednesday

    Time Temperature Precipitation Wind Pressure Humidity
    00:00 -1°C° 0 mm 3 mps 749 mmHg 86%
    01:00 -1°C° 0 mm 3 mps 749 mmHg 86%
    02:00 -2°C° 0 mm 3 mps 750 mmHg 86%
    03:00 -2°C° 0 mm 3 mps 749 mmHg 88%
    04:00 -2°C° 0 mm 3 mps 749 mmHg 91%
    05:00 -4°C° 0 mm 3 mps 749 mmHg 93%
    06:00 -2°C° 0 mm 2 mps 749 mmHg 92%
    07:00 -2°C° 0 mm 2 mps 749 mmHg 92%
    08:00 -2°C° 0 mm 2 mps 749 mmHg 92%
    09:00 -1°C° 0 mm 2 mps 749 mmHg 91%
    10:00 -1°C° 0 mm 3 mps 748 mmHg 91%
    11:00 0°C° 0 mm 3 mps 748 mmHg 90%
    12:00 -1°C° 0.1 mm 4 mps 747 mmHg 90%
    13:00 -1°C° 0.1 mm 4 mps 746 mmHg 90%
    14:00 -1°C° 0.1 mm 5 mps 746 mmHg 89%
    15:00 0°C° 0 mm 4 mps 745 mmHg 89%
    16:00 0°C° 0 mm 4 mps 745 mmHg 89%
    17:00 0°C° 0 mm 4 mps 744 mmHg 89%
    18:00 -1°C° 0 mm 4 mps 744 mmHg 90%
    19:00 0°C° 0 mm 3 mps 744 mmHg 91%
    20:00 -1°C° 0 mm 3 mps 744 mmHg 93%
    21:00 -1°C° 0 mm 3 mps 744 mmHg 92%
    22:00 -2°C° 0 mm 4 mps 743 mmHg 92%
    23:00 -2°C° 0 mm 4 mps 743 mmHg 92%

    28 February, Thursday

    Time Temperature Precipitation Wind Pressure Humidity
    00:00 -3°C° 0 mm 4 mps 743 mmHg 92%
    01:00 -3°C° 0 mm 4 mps 742 mmHg 91%
    02:00 -3°C° 0 mm 4 mps 742 mmHg 91%
    03:00 -2°C° 0 mm 3 mps 741 mmHg 91%
    04:00 -2°C° 0 mm 3 mps 741 mmHg 91%
    05:00 -2°C° 0 mm 3 mps 740 mmHg 92%
    06:00 -2°C° 0 mm 3 mps 739 mmHg 90%
    07:00 -2°C° 0 mm 3 mps 739 mmHg 88%
    08:00 -1°C° 0 mm 3 mps 738 mmHg 86%
    09:00 -1°C° 0.1 mm 3 mps 737 mmHg 84%
    10:00 0°C° 0.1 mm 3 mps 736 mmHg 82%
    11:00 0°C° 0.1 mm 4 mps 735 mmHg 80%
    12:00 0°C° 0.3 mm 4 mps 733 mmHg 80%
    13:00 0°C° 0.3 mm 4 mps 732 mmHg 80%
    14:00 0°C° 0.3 mm 4 mps 731 mmHg 80%
    15:00 0°C° 0.3 mm 4 mps 730 mmHg 84%
    16:00 0°C° 0.3 mm 4 mps 730 mmHg 88%
    17:00 0°C° 0.3 mm 4 mps 729 mmHg 92%
    18:00 0°C° 0 mm 5 mps 729 mmHg 90%
    19:00 -1°C° 0 mm 5 mps 729 mmHg 89%
    20:00 -1°C° 0 mm 5 mps 729 mmHg 88%
    21:00 -1°C° 0 mm 5 mps 729 mmHg 87%
    22:00 -1°C° 0 mm 5 mps 729 mmHg 86%
    23:00 -1°C° 0 mm 5 mps 728 mmHg 85%
    Show more